リニア彗星

221P/LINEAR (2015)

English version
Home page
Updated on November 3, 2015

---------------------------------------------------------------------

・ プロフィール

・ 写真集

・ 軌道要素

Epoch 2015 June 27.0 TT = JDT 2457200.5
T 2015 July 11.62190 TT                                 MPCW
q   1.7583077            (2000.0)            P               Q
n   0.15315746     Peri.   39.94697     -0.01487093     +0.98839441
a   3.4597438      Node   229.75726     -0.96051550     -0.05613251
e   0.4917809      Incl.   11.42337     -0.27782878     +0.14115818
P   6.44
From 166 observations 2002 Apr. 14-2015 Mar. 27, mean residual 0".6.

・ 星図

・ 光度変化

        m1 =  9.0 + 5 logΔ + 30.0 log r  [ ,0]  (              〜2015年 7月11日)
        m1 = 14.0 + 5 logΔ + 10.0 log r  [0, ]  (2015年 7月11日〜              )

---------------------------------------------------------------------

軌道要素はM.P.E.C. 2015-G03に掲載されたものです。
星図はステラナビゲータ Ver.8 (アストロアーツ) で作成したものです。
光度グラフはComet for Windowsで作成したものです。

---------------------------------------------------------------------

Copyright(C) Seiichi Yoshida (comet@aerith.net). All rights reserved.